Weather History for Olympia, WA

Change the Weather History Date:

Monday, February 4, 2013

  Actual Average Record
Temperature  
Mean Temperature 45 °F 40 °F  
Max Temperature 52 °F 48 °F 60 °F (2009)
Min Temperature 37 °F 33 °F 10 °F (1989)
Degree Days  
Heating Degree Days 20 24  
Month to date heating degree days 90 97  
Since 1 July heating degree days 3128 3148  
Cooling Degree Days 0 0  
Month to date cooling degree days 0 0  
Year to date cooling degree days 0 0  
Moisture  
Dew Point 41 °F    
Average Humidity 82    
Maximum Humidity 96    
Minimum Humidity 68    
Precipitation  
Precipitation T in 0.20 in 1.00 in (1965)
Month to date precipitation T 0.80  
Year to date precipitation 3.91 8.64  
Sea Level Pressure  
Sea Level Pressure 30.08 in    
Wind  
Wind Speed 3 mph (SSW)    
Max Wind Speed 9 mph    
Max Gust Speed 11 mph    
Visibility 8 miles    
Events      
T = Trace of Precipitation, MM = Missing Value Source: NWS Daily Summary

Daily Weather History Graph

Daily Weather History Graph

Search for Another Location

Airport:

Trip Planner

Search our weather history database for the weather conditions in past years. The results will help you decide how hot, cold, wet, or windy it might be!

Date:

Astronomy

Feb. 04, 2013 Rise Set
Actual Time 7:32 AM PST 5:19 PM PST
Civil Twilight 6:59 AM PST 5:52 PM PST
Nautical Twilight 6:23 AM PST 6:28 PM PST
Astronomical Twilight 5:48 AM PST 7:03 PM PST
Moon 2:19 AM PST (2/4) 11:42 AM PST (2/4)
Length of Visible Light 10h 52m
Length of Day
9h 47m
Last Quarter, 36% of the Moon is Illuminated
Feb 4
Last Quarter
Feb 9
New
Feb 17
First Quarter
Feb 25
Full
Mar 4
Last Quarter

Hourly Weather History & Observations

Time (PST) Temp. Windchill Dew Point Humidity Pressure Visibility Wind Dir Wind Speed Gust Speed Precip Events Conditions
12:54 AM 44.1 °F 40.8 °F 41.0 °F 89% 30.22 in 9.0 mi South 5.8 mph - N/A   Overcast
2:54 AM 43.0 °F 41.3 °F 41.0 °F 93% 30.21 in 9.0 mi SSW 3.5 mph - N/A   Overcast
3:54 AM 43.0 °F 41.3 °F 41.0 °F 93% 30.21 in 7.0 mi South 3.5 mph - N/A   Overcast
4:54 AM 43.0 °F 39.5 °F 41.0 °F 93% 30.19 in 6.0 mi South 5.8 mph - N/A   Overcast
5:54 AM 43.0 °F 40.3 °F 41.0 °F 93% 30.19 in 6.0 mi SW 4.6 mph - N/A   Overcast
6:54 AM 42.1 °F 40.2 °F 41.0 °F 96% 30.18 in 5.0 mi South 3.5 mph - N/A   Overcast
7:54 AM 43.0 °F 41.3 °F 41.0 °F 93% 30.17 in 5.0 mi South 3.5 mph - N/A   Overcast
8:54 AM 44.1 °F 41.5 °F 42.1 °F 93% 30.17 in 4.0 mi South 4.6 mph - N/A   Overcast
9:54 AM 45.0 °F 41.2 °F 42.1 °F 90% 30.16 in 10.0 mi South 6.9 mph - N/A   Mostly Cloudy
10:54 AM 46.0 °F - 42.1 °F 86% 30.16 in 10.0 mi Calm Calm - N/A   Mostly Cloudy
11:01 AM 46.0 °F 44.8 °F 42.1 °F 86% 30.15 in 7.0 mi SW 3.5 mph - N/A   Scattered Clouds
11:54 AM 48.0 °F - 42.1 °F 80% 30.14 in 7.0 mi West 3.5 mph - N/A   Mostly Cloudy
12:54 PM 50.0 °F - 42.1 °F 74% 30.11 in 10.0 mi WSW 6.9 mph - N/A   Mostly Cloudy
1:54 PM 50.0 °F - 41.0 °F 71% 30.06 in 10.0 mi Calm Calm - N/A   Scattered Clouds
2:54 PM 52.0 °F - 41.0 °F 66% 30.03 in 10.0 mi Calm Calm - N/A   Scattered Clouds
3:54 PM 51.1 °F - 41.0 °F 68% 30.03 in 10.0 mi Calm Calm - N/A   Overcast
4:54 PM 50.0 °F - 41.0 °F 71% 30.02 in 10.0 mi Calm Calm - N/A   Mostly Cloudy
5:54 PM 46.9 °F - 42.1 °F 83% 30.00 in 10.0 mi SSE 6.9 mph - N/A   Overcast
6:54 PM 48.0 °F - 42.1 °F 80% 29.93 in 10.0 mi NE 4.6 mph - 0.00 in   Mostly Cloudy
7:54 PM 46.0 °F 43.9 °F 42.1 °F 86% 29.94 in 9.0 mi NW 4.6 mph - N/A   Mostly Cloudy
8:54 PM 42.1 °F - 39.9 °F 92% 29.93 in 8.0 mi Calm Calm - N/A   Scattered Clouds
9:54 PM 39.9 °F 37.8 °F 37.9 °F 93% 29.93 in 6.0 mi SSE 3.5 mph - N/A   Scattered Clouds
10:54 PM 39.0 °F 34.8 °F 37.9 °F 96% 29.93 in 7.0 mi SSW 5.8 mph - N/A   Mostly Cloudy
11:54 PM 43.0 °F - 41.0 °F 93% 29.93 in 8.0 mi Calm Calm - N/A   Overcast